Time,TemperatureF,DewpointF,PressureIn,WindDirection,WindDirectionDegrees,WindSpeedMPH,WindSpeedGustMPH,Humidity,HourlyPrecipIn,Conditions,Clouds,dailyrainin,SoftwareType,DateUTC
2013-05-02 00:01:00,73.0,17.0,28.93,West,269,1.0,4.0,12,0.00,,,0.00,,2013-05-02 07:01:00,
2013-05-02 00:11:00,73.0,17.0,28.93,West,269,1.0,4.0,12,0.00,,,0.00,,2013-05-02 07:11:00,
2013-05-02 00:21:00,71.0,21.0,28.94,North,360,0.0,1.0,15,0.00,,,0.00,,2013-05-02 07:21:00,
2013-05-02 00:31:00,70.0,19.0,28.94,West,265,0.0,3.0,14,0.00,,,0.00,,2013-05-02 07:31:00,
2013-05-02 00:41:00,70.0,19.0,28.94,West,265,0.0,3.0,14,0.00,,,0.00,,2013-05-02 07:41:00,
2013-05-02 00:51:00,70.0,19.0,28.95,East,92,0.0,3.0,14,0.00,,,0.00,,2013-05-02 07:51:00,
2013-05-02 01:02:00,69.0,21.0,28.95,NNE,32,0.0,3.0,16,0.00,,,0.00,,2013-05-02 08:02:00,
2013-05-02 01:11:00,69.0,21.0,28.95,NNE,32,0.0,3.0,16,0.00,,,0.00,,2013-05-02 08:11:00,
2013-05-02 01:21:00,68.0,19.0,28.95,NW,321,0.0,3.0,15,0.00,,,0.00,,2013-05-02 08:21:00,
2013-05-02 01:32:00,67.0,18.0,28.96,South,171,0.0,3.0,15,0.00,,,0.00,,2013-05-02 08:32:00,
2013-05-02 01:42:00,67.0,18.0,28.96,South,171,0.0,3.0,15,0.00,,,0.00,,2013-05-02 08:42:00,
2013-05-02 01:52:00,66.0,23.0,28.96,West,260,0.0,2.0,19,0.00,,,0.00,,2013-05-02 08:52:00,
2013-05-02 02:02:00,63.0,22.0,28.96,NNE,19,0.0,2.0,21,0.00,,,0.00,,2013-05-02 09:02:00,
2013-05-02 02:11:00,63.0,22.0,28.96,NNE,19,0.0,2.0,21,0.00,,,0.00,,2013-05-02 09:11:00,
2013-05-02 02:21:00,63.0,20.0,28.96,NNE,20,0.0,3.0,19,0.00,,,0.00,,2013-05-02 09:21:00,
2013-05-02 02:32:00,62.0,23.0,28.96,NE,35,0.0,4.0,22,0.00,,,0.00,,2013-05-02 09:32:00,
2013-05-02 02:52:00,61.0,20.0,28.97,North,5,0.0,3.0,20,0.00,,,0.00,,2013-05-02 09:52:00,
2013-05-02 03:02:00,60.0,23.0,28.97,North,5,0.0,3.0,24,0.00,,,0.00,,2013-05-02 10:02:00,
2013-05-02 03:22:00,59.0,21.0,28.97,North,5,0.0,1.0,23,0.00,,,0.00,,2013-05-02 10:22:00,
2013-05-02 03:32:00,58.0,21.0,28.97,North,5,0.0,2.0,24,0.00,,,0.00,,2013-05-02 10:32:00,
2013-05-02 03:52:00,57.0,23.0,28.97,North,5,0.0,0.0,27,0.00,,,0.00,,2013-05-02 10:52:00,
2013-05-02 04:02:00,56.0,23.0,28.98,North,5,0.0,2.0,28,0.00,,,0.00,,2013-05-02 11:02:00,
2013-05-02 04:32:00,55.0,23.0,28.98,North,5,0.0,1.0,28,0.00,,,0.00,,2013-05-02 11:32:00,
2013-05-02 04:52:00,55.0,22.0,28.98,North,5,0.0,1.0,27,0.00,,,0.00,,2013-05-02 11:52:00,
2013-05-02 05:01:00,54.0,24.0,28.98,North,5,0.0,0.0,31,0.00,,,0.00,,2013-05-02 12:01:00,
2013-05-02 05:21:00,53.0,24.0,28.98,North,5,0.0,0.0,32,0.00,,,0.00,,2013-05-02 12:21:00,
2013-05-02 05:32:00,52.0,23.0,28.98,North,5,0.0,1.0,32,0.00,,,0.00,,2013-05-02 12:32:00,
2013-05-02 05:52:00,52.0,23.0,28.98,North,5,0.0,1.0,32,0.00,,,0.00,,2013-05-02 12:52:00,
2013-05-02 06:01:00,52.0,24.0,28.98,North,5,0.0,2.0,33,0.00,,,0.00,,2013-05-02 13:01:00,
2013-05-02 06:31:00,50.0,23.0,28.98,North,9,0.0,2.0,34,0.00,,,0.00,,2013-05-02 13:31:00,
2013-05-02 06:52:00,51.0,24.0,28.99,North,10,1.0,3.0,34,0.00,,,0.00,,2013-05-02 13:52:00,
2013-05-02 07:02:00,51.0,24.0,28.99,North,10,0.0,0.0,35,0.00,,,0.00,,2013-05-02 14:02:00,
2013-05-02 07:21:00,51.0,27.0,29.00,North,10,0.0,0.0,39,0.00,,,0.00,,2013-05-02 14:21:00,
2013-05-02 07:31:00,50.0,27.0,29.00,North,10,0.0,1.0,40,0.00,,,0.00,,2013-05-02 14:31:00,
2013-05-02 07:52:00,50.0,31.0,29.00,North,10,0.0,0.0,47,0.00,,,0.00,,2013-05-02 14:52:00,
2013-05-02 08:02:00,51.0,33.0,29.00,North,10,0.0,0.0,50,0.00,,,0.00,,2013-05-02 15:02:00,
2013-05-02 08:21:00,52.0,32.0,29.00,North,10,0.0,0.0,47,0.00,,,0.00,,2013-05-02 15:21:00,
2013-05-02 08:32:00,55.0,31.0,29.00,North,10,0.0,0.0,40,0.00,,,0.00,,2013-05-02 15:32:00,
2013-05-02 09:32:00,65.0,30.0,29.01,North,10,0.0,0.0,27,0.00,,,0.00,,2013-05-02 16:32:00,
2013-05-02 09:43:00,65.0,30.0,29.01,North,10,0.0,0.0,27,0.00,,,0.00,,2013-05-02 16:43:00,
2013-05-02 10:02:00,70.0,40.0,29.00,North,10,0.0,1.0,33,0.00,,,0.00,,2013-05-02 17:02:00,
2013-05-02 10:31:00,76.0,39.0,29.00,SE,132,0.0,2.0,26,0.00,,,0.00,,2013-05-02 17:31:00,
2013-05-02 10:51:00,78.0,34.0,28.99,NNE,15,0.0,2.0,20,0.00,,,0.00,,2013-05-02 17:51:00,
2013-05-02 11:01:00,82.0,28.0,28.99,NW,306,0.0,3.0,14,0.00,,,0.00,,2013-05-02 18:01:00,
2013-05-02 11:11:00,82.0,28.0,28.99,NW,306,0.0,3.0,14,0.00,,,0.00,,2013-05-02 18:11:00,
2013-05-02 11:21:00,84.0,24.0,28.99,NW,313,1.0,3.0,11,0.00,,,0.00,,2013-05-02 18:21:00,
2013-05-02 11:31:00,85.0,22.0,28.99,NW,310,0.0,3.0,10,0.00,,,0.00,,2013-05-02 18:31:00,
2013-05-02 11:41:00,85.0,22.0,28.99,NW,310,0.0,3.0,10,0.00,,,0.00,,2013-05-02 18:41:00,
2013-05-02 11:51:00,85.0,27.0,28.99,NW,311,0.0,2.0,12,0.00,,,0.00,,2013-05-02 18:51:00,
2013-05-02 12:01:00,84.0,26.0,28.99,SSW,200,0.0,3.0,12,0.00,,,0.00,,2013-05-02 19:01:00,
2013-05-02 12:11:00,84.0,26.0,28.99,SSW,200,0.0,3.0,12,0.00,,,0.00,,2013-05-02 19:11:00,
2013-05-02 12:21:00,84.0,28.0,28.98,SW,221,0.0,4.0,13,0.00,,,0.00,,2013-05-02 19:21:00,
2013-05-02 12:31:00,84.0,26.0,28.98,SW,219,0.0,5.0,12,0.00,,,0.00,,2013-05-02 19:31:00,
2013-05-02 12:41:00,84.0,26.0,28.98,SW,219,0.0,5.0,12,0.00,,,0.00,,2013-05-02 19:41:00,
2013-05-02 12:52:00,86.0,27.0,28.97,SW,226,0.0,3.0,12,0.00,,,0.00,,2013-05-02 19:52:00,
2013-05-02 13:02:00,86.0,23.0,28.97,ESE,117,0.0,3.0,10,0.00,,,0.00,,2013-05-02 20:02:00,
2013-05-02 13:11:00,86.0,23.0,28.97,ESE,117,0.0,3.0,10,0.00,,,0.00,,2013-05-02 20:11:00,
2013-05-02 13:21:00,88.0,29.0,28.97,WSW,241,0.0,2.0,12,0.00,,,0.00,,2013-05-02 20:21:00,
2013-05-02 13:32:00,88.0,29.0,28.96,South,189,1.0,3.0,12,0.00,,,0.00,,2013-05-02 20:32:00,
2013-05-02 13:41:00,88.0,29.0,28.96,South,189,1.0,3.0,12,0.00,,,0.00,,2013-05-02 20:41:00,
2013-05-02 13:52:00,87.0,28.0,28.96,SW,225,1.0,3.0,12,0.00,,,0.00,,2013-05-02 20:52:00,
2013-05-02 14:01:00,88.0,35.0,28.96,West,263,0.0,5.0,15,0.00,,,0.00,,2013-05-02 21:01:00,
2013-05-02 14:11:00,88.0,35.0,28.96,West,263,0.0,5.0,15,0.00,,,0.00,,2013-05-02 21:11:00,
2013-05-02 14:21:00,90.0,31.0,28.95,SSW,203,0.0,3.0,12,0.00,,,0.00,,2013-05-02 21:21:00,
2013-05-02 14:33:00,91.0,29.0,28.95,South,185,1.0,4.0,11,0.00,,,0.00,,2013-05-02 21:33:00,
2013-05-02 14:42:00,91.0,29.0,28.95,South,185,1.0,4.0,11,0.00,,,0.00,,2013-05-02 21:42:00,
2013-05-02 14:53:00,90.0,31.0,28.95,SW,220,2.0,4.0,12,0.00,,,0.00,,2013-05-02 21:53:00,
2013-05-02 15:02:00,91.0,31.0,28.95,SSW,196,0.0,2.0,12,0.00,,,0.00,,2013-05-02 22:02:00,
2013-05-02 15:12:00,91.0,31.0,28.95,SSW,196,0.0,2.0,12,0.00,,,0.00,,2013-05-02 22:12:00,
2013-05-02 15:22:00,92.0,34.0,28.94,SW,217,1.0,3.0,13,0.00,,,0.00,,2013-05-02 22:22:00,
2013-05-02 15:32:00,92.0,32.0,28.93,WNW,288,0.0,3.0,12,0.00,,,0.00,,2013-05-02 22:32:00,
2013-05-02 15:42:00,92.0,32.0,28.93,WNW,288,0.0,3.0,12,0.00,,,0.00,,2013-05-02 22:42:00,
2013-05-02 15:52:00,91.0,33.0,28.93,SSE,153,0.0,5.0,13,0.00,,,0.00,,2013-05-02 22:52:00,
2013-05-02 16:02:00,91.0,35.0,28.93,SW,223,1.0,4.0,14,0.00,,,0.00,,2013-05-02 23:02:00,
2013-05-02 16:11:00,91.0,35.0,28.93,SW,223,1.0,4.0,14,0.00,,,0.00,,2013-05-02 23:11:00,
2013-05-02 16:22:00,91.0,33.0,28.92,SSE,161,1.0,4.0,13,0.00,,,0.00,,2013-05-02 23:22:00,
2013-05-02 16:31:00,91.0,39.0,28.92,SW,227,1.0,3.0,16,0.00,,,0.00,,2013-05-02 23:31:00,
2013-05-02 16:51:00,91.0,37.0,28.92,SW,219,2.0,4.0,15,0.00,,,0.00,,2013-05-02 23:51:00,
2013-05-02 17:01:00,90.0,36.0,28.92,SW,217,1.0,4.0,15,0.00,,,0.00,,2013-05-03 00:01:00,
2013-05-02 17:11:00,90.0,36.0,28.92,SW,217,1.0,4.0,15,0.00,,,0.00,,2013-05-03 00:11:00,
2013-05-02 17:21:00,88.0,35.0,28.91,SW,223,1.0,4.0,15,0.00,,,0.00,,2013-05-03 00:21:00,
2013-05-02 17:31:00,88.0,36.0,28.91,WSW,239,1.0,4.0,16,0.00,,,0.00,,2013-05-03 00:31:00,
2013-05-02 17:41:00,88.0,36.0,28.91,WSW,239,1.0,4.0,16,0.00,,,0.00,,2013-05-03 00:41:00,
2013-05-02 17:52:00,87.0,37.0,28.91,SW,223,2.0,4.0,17,0.00,,,0.00,,2013-05-03 00:52:00,
2013-05-02 18:01:00,87.0,38.0,28.91,SW,215,2.0,3.0,18,0.00,,,0.00,,2013-05-03 01:01:00,
2013-05-02 18:11:00,87.0,38.0,28.91,SW,215,2.0,3.0,18,0.00,,,0.00,,2013-05-03 01:11:00,
2013-05-02 18:21:00,85.0,38.0,28.91,SW,232,2.0,4.0,19,0.00,,,0.00,,2013-05-03 01:21:00,
2013-05-02 18:31:00,84.0,36.0,28.90,SW,232,2.0,4.0,18,0.00,,,0.00,,2013-05-03 01:31:00,
2013-05-02 18:41:00,84.0,36.0,28.90,SW,232,2.0,4.0,18,0.00,,,0.00,,2013-05-03 01:41:00,
2013-05-02 18:52:00,83.0,35.0,28.91,SSW,206,1.0,4.0,18,0.00,,,0.00,,2013-05-03 01:52:00,
2013-05-02 19:01:00,82.0,36.0,28.90,SW,228,1.0,5.0,19,0.00,,,0.00,,2013-05-03 02:01:00,
2013-05-02 19:11:00,82.0,36.0,28.90,SW,228,1.0,5.0,19,0.00,,,0.00,,2013-05-03 02:11:00,
2013-05-02 19:21:00,81.0,33.0,28.90,SW,232,1.0,3.0,18,0.00,,,0.00,,2013-05-03 02:21:00,
2013-05-02 19:31:00,81.0,33.0,28.90,NW,309,0.0,2.0,18,0.00,,,0.00,,2013-05-03 02:31:00,
2013-05-02 19:41:00,81.0,33.0,28.90,NW,309,0.0,2.0,18,0.00,,,0.00,,2013-05-03 02:41:00,
2013-05-02 19:52:00,79.0,33.0,28.90,WSW,244,0.0,3.0,19,0.00,,,0.00,,2013-05-03 02:52:00,
2013-05-02 20:01:00,79.0,33.0,28.90,WSW,244,0.0,2.0,19,0.00,,,0.00,,2013-05-03 03:01:00,
2013-05-02 20:11:00,79.0,33.0,28.90,WSW,244,0.0,2.0,19,0.00,,,0.00,,2013-05-03 03:11:00,
2013-05-02 20:21:00,77.0,34.0,28.90,WSW,244,0.0,1.0,21,0.00,,,0.00,,2013-05-03 03:21:00,
2013-05-02 20:33:00,75.0,34.0,28.90,ENE,67,0.0,1.0,22,0.00,,,0.00,,2013-05-03 03:33:00,
2013-05-02 20:42:00,75.0,34.0,28.90,ENE,67,0.0,1.0,22,0.00,,,0.00,,2013-05-03 03:42:00,
2013-05-02 20:52:00,73.0,34.0,28.90,ENE,67,0.0,0.0,24,0.00,,,0.00,,2013-05-03 03:52:00,
2013-05-02 21:02:00,72.0,35.0,28.90,ENE,63,0.0,1.0,26,0.00,,,0.00,,2013-05-03 04:02:00,
2013-05-02 21:12:00,72.0,35.0,28.90,ENE,63,0.0,1.0,26,0.00,,,0.00,,2013-05-03 04:12:00,
2013-05-02 21:22:00,70.0,35.0,28.91,ENE,63,0.0,2.0,28,0.00,,,0.00,,2013-05-03 04:22:00,
2013-05-02 21:32:00,70.0,34.0,28.91,ENE,63,0.0,2.0,27,0.00,,,0.00,,2013-05-03 04:32:00,
2013-05-02 21:42:00,70.0,34.0,28.91,ENE,63,0.0,2.0,27,0.00,,,0.00,,2013-05-03 04:42:00,
2013-05-02 21:52:00,69.0,35.0,28.91,ENE,63,0.0,0.0,29,0.00,,,0.00,,2013-05-03 04:52:00,
2013-05-02 22:02:00,68.0,34.0,28.91,ENE,63,0.0,0.0,28,0.00,,,0.00,,2013-05-03 05:02:00,
2013-05-02 22:11:00,68.0,34.0,28.91,ENE,63,0.0,0.0,28,0.00,,,0.00,,2013-05-03 05:11:00,
2013-05-02 22:21:00,68.0,35.0,28.91,ENE,63,0.0,1.0,30,0.00,,,0.00,,2013-05-03 05:21:00,
2013-05-02 22:32:00,67.0,34.0,28.92,NE,40,0.0,0.0,29,0.00,,,0.00,,2013-05-03 05:32:00,
2013-05-02 22:42:00,67.0,34.0,28.92,NE,40,0.0,0.0,29,0.00,,,0.00,,2013-05-03 05:42:00,
2013-05-02 22:52:00,66.0,34.0,28.92,NE,40,0.0,0.0,31,0.00,,,0.00,,2013-05-03 05:52:00,
2013-05-02 23:01:00,64.0,34.0,28.92,NE,40,0.0,0.0,32,0.00,,,0.00,,2013-05-03 06:01:00,
2013-05-02 23:11:00,64.0,34.0,28.92,NE,40,0.0,0.0,32,0.00,,,0.00,,2013-05-03 06:11:00,
2013-05-02 23:21:00,63.0,34.0,28.92,NE,40,0.0,0.0,34,0.00,,,0.00,,2013-05-03 06:21:00,
2013-05-02 23:31:00,62.0,35.0,28.92,NE,40,0.0,0.0,36,0.00,,,0.00,,2013-05-03 06:31:00,
2013-05-02 23:42:00,62.0,35.0,28.92,NE,40,0.0,0.0,36,0.00,,,0.00,,2013-05-03 06:42:00,
2013-05-02 23:51:00,61.0,35.0,28.91,NE,40,0.0,0.0,37,0.00,,,0.00,,2013-05-03 06:51:00,